Flag Weather past 2 weeks in Hammerfest, Norway

Now
37 °F

Passing clouds.


Feels Like: 31 °F
Forecast: 35 / 40 °F
Wind: 8 mph from Southwest

Location: Hammerfest

Current Time: Nov 26, 2014 at 5:36:52 AM

Latest Report: Nov 26, 2014 at 4:50 AM


Visibility: N/A

Pressure: 29.80 "Hg

Humidity: 70%

Dew point: 28 °F

Location of HammerfestLocation

Historic Weather in Hammerfest — Graph

°F

Hammerfest temperature yesterday

Maximum temperature yesterday: 37 °F (at 4:50 PM)
Minimum temperature yesterday: 28 °F (at 1:50 AM)
Average temperature yesterday: 34 °F

Past Weeks' High & Low Weather Summary

 TemperatureHumidityPressure
High45 °F (Nov 19, 5:50 AM)100% (Nov 13, 8:50 PM)30.51 "Hg (Nov 13, 8:50 PM)
Low21 °F (Nov 14, 8:50 PM)45% (Nov 13, 4:00 PM)29.74 "Hg (Nov 25, 3:50 PM)
Average34 °F82%30.13 "Hg
* Reported Nov 11 3:50 AM — Nov 26 3:50 AM, Hammerfest, Weather by CustomWeather, © 2014

Note: Actual official high and low records may vary slightly from our data, if they occured in-between our weather recording intervals... More about our weather records

Advertising

Hammerfest weather history for previous 24 hours

 ConditionsComfort  
Time TempWeatherWind HumidityBarometerVisibility
3:50 AM
Nov 26
39 °FPassing clouds.5 mph65%29.80 "HgN/A
2:50 AM37 °FPassing clouds.5 mph70%29.80 "HgN/A
1:50 AM36 °FPassing clouds.7 mph75%29.80 "HgN/A
12:50 AM36 °FSunny.5 mph75%29.80 "Hg10 mi
11:50 PM
Nov 25
34 °FPassing clouds.2 mph81%29.80 "HgN/A
10:50 PM36 °FPassing clouds.3 mph75%29.80 "HgN/A
9:50 PM32 °FPassing clouds.1 mph87%29.80 "HgN/A
8:50 PM36 °FPassing clouds.3 mph81%29.77 "HgN/A
7:50 PM36 °FPassing clouds.3 mph75%29.77 "HgN/A
6:50 PM36 °FPassing clouds.8 mph75%29.77 "HgN/A
5:50 PM36 °FPassing clouds.12 mph75%29.74 "HgN/A
4:50 PM37 °FPassing clouds.10 mph70%29.74 "HgN/A
3:50 PM36 °FSunny.3 mph75%29.74 "Hg10 mi
2:50 PM36 °FPassing clouds.10 mph75%29.77 "HgN/A
1:50 PM36 °FScattered clouds.15 mph75%29.77 "HgN/A
12:50 PM36 °FScattered clouds.17 mph75%29.77 "HgN/A
11:50 AM36 °FScattered clouds.8 mph75%29.80 "HgN/A
10:50 AM36 °FScattered clouds.1 mph75%29.83 "HgN/A
9:50 AM34 °FSunny.7 mph75%29.86 "Hg10 mi
8:50 AM32 °FSunny.2 mph80%29.89 "Hg10 mi
7:50 AM32 °FPassing clouds.6 mph75%29.89 "HgN/A
6:50 AM32 °FPassing clouds.6 mph75%29.92 "HgN/A
5:50 AM30 °FClear.2 mph80%29.92 "Hg10 mi
Weather by CustomWeather, © 2014

See weather overviewHow to use our weather pages